リニア彗星

C/2003 S3 ( LINEAR )

English version
Home page
Updated on November 20, 2004

---------------------------------------------------------------------

・ プロフィール

発見日 2003年9月27日
発見光度 20.1等
発見者 Lincoln Laboratory Near-Earth Asteroid Research project

・ 軌道要素

T 2003 Apr. 10.8911 TT                                  MPC
q   8.128907             (2000.0)            P               Q
                   Peri.  154.5974      +0.3500963      +0.8706353
                   Node   226.3913      +0.7571966      -0.0458505
e   1.0            Incl.  151.4922      +0.5514399      -0.4897875
>From 79 observations 2003 Sept. 27-Nov. 26.

・ 星図

・ 光度変化

        m1 = 5.5 + 5 logΔ + 10.0 log r

---------------------------------------------------------------------

軌道要素はM.P.E.C. 2003-X09に掲載されたものです。
星図は StellaNavigator Ver.2.0 for Windows (アストロアーツ 編著 / アスキー出版局刊) で作成したものです。
光度グラフはComet for Windowsで作成したものです。

---------------------------------------------------------------------

Copyright(C) Seiichi Yoshida (comet@aerith.net). All rights reserved.